�N����,����,�~����,�C��,���x,�C��,����,���ϕ���,�ő�u�ԕ���,�ő厞����,���˗�,�I�_���x,�n�����x,�ő啗���N��,DTYPE
"18/03/01","00:10",0.0,11.0,88.8,995.3,94.8,1.1,2.4,86.2,0.00,9.3,9.1,"00:09:12",1
"18/03/01","00:20",0.2,11.2,88.8,995.3,73.8,1.0,2.1,79.8,0.00,9.5,9.1,"00:12:08",1
"18/03/01","00:30",0.4,11.2,89.1,995.1,55.7,0.7,2.0,129.9,0.00,9.5,9.0,"00:22:24",1
"18/03/01","00:40",1.0,11.1,89.9,994.4,329.5,1.1,2.1,341.3,0.00,9.5,9.0,"00:38:56",1
"18/03/01","00:50",0.8,10.8,90.9,993.2,309.6,1.7,2.4,326.5,0.00,9.4,9.0,"00:49:20",1
"18/03/01","01:00",1.0,10.6,92.5,993.0,325.4,1.0,1.8,310.0,0.00,9.5,9.2,"00:51:36",1
"18/03/01","01:10",0.8,10.6,93.3,992.2,306.9,1.1,1.9,306.6,0.00,9.6,9.1,"01:09:50",1
"18/03/01","01:20",1.4,10.6,94.1,991.5,309.1,1.3,2.9,323.3,0.00,9.7,9.1,"01:17:32",1
"18/03/01","01:30",1.4,10.6,94.5,990.4,328.6,1.2,2.1,327.4,0.00,9.8,8.9,"01:20:02",1
"18/03/01","01:40",1.4,10.7,95.3,990.4,304.2,1.5,2.5,306.1,0.00,10.0,9.1,"01:33:12",1
"18/03/01","01:50",1.6,10.9,95.4,989.2,332.1,1.3,2.4,344.9,0.00,10.2,9.1,"01:46:40",1
"18/03/01","02:00",1.4,11.0,95.6,988.5,300.7,1.8,3.4,307.1,0.00,10.4,9.3,"01:59:44",1
"18/03/01","02:10",1.4,11.1,96.0,988.5,309.6,2.2,3.4,322.0,0.00,10.5,9.4,"02:05:38",1
"18/03/01","02:20",1.0,11.1,96.1,987.8,317.3,0.8,2.4,333.4,0.00,10.5,9.4,"02:10:08",1
"18/03/01","02:30",1.2,11.2,96.2,987.3,308.6,1.6,2.5,290.2,0.00,10.7,9.2,"02:24:16",1
"18/03/01","02:40",0.4,11.2,96.3,987.0,294.8,1.6,3.7,320.0,0.00,10.7,9.3,"02:37:20",1
"18/03/01","02:50",0.0,11.2,96.6,986.3,314.1,1.2,2.0,307.1,0.00,10.7,9.3,"02:44:24",1
"18/03/01","03:00",0.0,11.1,96.5,986.1,245.8,0.7,1.7,352.5,0.00,10.6,9.4,"02:51:12",1
"18/03/01","03:10",0.2,11.1,96.8,985.6,256.8,0.7,1.3,173.4,0.00,10.7,9.5,"03:00:56",1
"18/03/01","03:20",0.2,11.1,96.9,985.2,312.8,1.7,3.2,327.7,0.00,10.7,9.3,"03:10:02",1
"18/03/01","03:30",0.0,11.1,97.1,984.9,326.8,2.1,3.5,333.8,0.00,10.7,9.3,"03:20:56",1
"18/03/01","03:40",0.0,11.2,97.2,984.9,352.5,1.0,1.9,334.4,0.00,10.8,9.2,"03:30:08",1
"18/03/01","03:50",0.0,11.2,97.0,985.2,303.0,1.5,2.5,318.2,0.00,10.8,9.3,"03:48:08",1
"18/03/01","04:00",0.0,11.3,97.2,984.9,290.4,1.8,3.2,301.6,0.00,10.9,9.5,"03:59:20",1
"18/03/01","04:10",0.8,11.4,97.4,984.7,303.4,1.8,3.2,345.2,0.00,11.0,9.3,"04:05:12",1
"18/03/01","04:20",1.2,11.7,97.6,984.9,326.2,2.2,3.4,338.0,0.00,11.4,9.4,"04:12:42",1
"18/03/01","04:30",0.6,13.2,96.5,985.4,237.2,3.4,9.6,326.9,0.00,12.7,9.4,"04:27:02",1
"18/03/01","04:40",0.2,13.2,94.3,985.4,299.4,3.5,7.4,332.4,0.00,12.3,9.4,"04:38:16",1
"18/03/01","04:50",0.0,13.3,90.6,985.6,287.7,4.7,9.4,327.8,0.00,11.8,9.5,"04:45:36",1
"18/03/01","05:00",0.0,13.3,84.1,985.9,294.7,5.1,14.3,298.5,0.00,10.7,9.4,"04:50:48",1
"18/03/01","05:10",0.0,13.1,81.7,985.9,302.6,4.1,8.5,333.3,0.00,10.1,9.4,"05:04:28",1
"18/03/01","05:20",0.0,13.1,78.0,986.1,293.6,4.4,9.3,319.6,0.00,9.4,9.6,"05:16:42",1
"18/03/01","05:30",0.0,13.0,75.5,986.6,309.5,5.0,9.6,325.6,0.00,8.8,9.5,"05:22:32",1
"18/03/01","05:40",0.0,12.8,74.0,986.6,308.7,4.6,9.7,347.4,0.00,8.3,9.3,"05:39:12",1
"18/03/01","05:50",0.0,12.7,70.9,987.0,305.9,5.6,10.2,312.7,0.00,7.6,9.6,"05:46:00",1
"18/03/01","06:00",0.0,12.5,70.9,986.8,303.8,5.4,10.6,316.8,0.00,7.4,9.4,"05:55:44",1
"18/03/01","06:10",0.0,12.1,70.6,987.0,282.7,4.2,8.3,288.3,0.00,7.0,9.6,"06:05:14",1
"18/03/01","06:20",0.0,12.0,70.5,987.3,284.1,4.5,8.6,299.7,0.00,6.8,9.2,"06:14:40",1
"18/03/01","06:30",0.0,11.8,71.1,987.5,277.9,4.4,8.6,234.5,0.00,6.8,9.2,"06:28:08",1
"18/03/01","06:40",0.0,11.7,71.9,988.2,276.8,3.2,6.8,336.2,0.00,6.8,9.1,"06:35:44",1
"18/03/01","06:50",0.0,11.7,71.8,988.2,276.9,4.4,11.9,236.5,0.00,6.8,9.1,"06:47:58",1
"18/03/01","07:00",0.0,11.5,72.7,988.5,272.1,4.0,8.1,266.0,0.00,6.8,9.1,"06:57:04",1
"18/03/01","07:10",0.0,11.5,73.5,988.7,276.2,3.5,7.0,306.8,0.00,7.0,8.9,"07:02:40",1
"18/03/01","07:20",0.0,11.3,73.8,989.2,287.1,4.7,9.8,326.6,0.00,6.8,9.1,"07:17:20",1
"18/03/01","07:30",0.0,11.1,74.6,989.6,284.8,4.0,9.3,234.6,0.00,6.8,8.9,"07:28:58",1
"18/03/01","07:40",0.0,11.0,74.3,990.1,274.8,3.6,9.5,234.8,0.00,6.6,9.2,"07:30:24",1
"18/03/01","07:50",0.0,10.9,75.2,990.4,287.0,2.3,4.8,325.6,0.00,6.7,9.1,"07:42:56",1
"18/03/01","08:00",0.0,10.8,76.5,990.4,298.2,3.1,7.4,309.4,0.00,6.9,8.9,"07:55:12",1
"18/03/01","08:10",0.0,10.9,77.2,990.4,277.9,3.7,10.8,316.0,0.04,7.1,9.0,"08:08:00",1
"18/03/01","08:20",0.0,10.8,78.0,991.1,258.6,4.0,13.4,234.4,0.04,7.2,8.7,"08:15:52",1
"18/03/01","08:30",0.0,10.7,79.0,991.3,255.3,4.0,9.5,229.2,0.06,7.3,8.9,"08:27:28",1
"18/03/01","08:40",0.2,10.6,81.1,991.5,265.0,2.7,6.4,237.6,0.05,7.5,9.1,"08:33:20",1
"18/03/01","08:50",0.0,10.4,83.0,992.0,277.0,2.6,5.0,289.5,0.06,7.7,9.0,"08:43:28",1
"18/03/01","09:00",0.0,10.8,82.8,992.2,274.1,2.2,5.5,291.4,0.10,8.0,8.9,"08:55:52",1
"18/03/01","09:10",0.2,10.6,84.2,992.2,270.7,2.5,5.0,246.5,0.09,8.1,8.7,"09:02:40",1
"18/03/01","09:20",0.0,11.2,82.8,992.5,284.5,2.0,3.4,318.3,0.15,8.4,9.2,"09:13:52",1
"18/03/01","09:30",0.0,11.3,79.9,992.7,264.9,2.6,5.9,298.2,0.13,8.0,9.2,"09:21:20",1
"18/03/01","09:40",0.0,11.8,77.5,993.0,267.6,3.5,5.4,225.7,0.19,8.0,9.4,"09:35:12",1
"18/03/01","09:50",0.0,12.6,75.9,993.0,261.3,3.0,7.0,245.7,0.31,8.5,9.5,"09:43:12",1
"18/03/01","10:00",0.0,12.8,72.9,993.4,282.1,3.0,7.0,333.2,0.40,8.1,9.5,"09:56:48",1
"18/03/01","10:10",0.0,13.0,71.7,993.7,288.9,3.4,6.5,332.5,0.39,8.1,9.7,"10:01:12",1
"18/03/01","10:20",0.0,13.5,70.1,993.7,296.5,3.1,6.2,346.9,0.42,8.2,10.0,"10:19:52",1
"18/03/01","10:30",0.0,14.5,66.7,993.4,274.7,2.3,4.8,240.2,0.45,8.4,10.1,"10:21:12",1
"18/03/01","10:40",0.0,14.6,64.7,993.9,266.9,3.1,9.0,332.6,0.51,8.1,10.1,"10:32:00",1
"18/03/01","10:50",0.0,14.2,63.5,994.1,270.4,2.7,4.8,197.4,0.42,7.4,10.4,"10:44:32",1
"18/03/01","11:00",0.0,14.8,61.4,993.7,283.5,2.1,4.4,330.1,0.39,7.5,10.6,"10:55:20",1
"18/03/01","11:10",0.0,15.0,60.1,993.9,275.3,1.8,4.0,237.5,0.52,7.4,10.8,"11:05:04",1
"18/03/01","11:20",0.0,14.6,58.2,993.9,241.8,3.7,7.7,231.1,0.50,6.5,11.2,"11:16:32",1
"18/03/01","11:30",0.0,14.2,59.4,993.7,260.5,2.6,5.2,229.0,0.26,6.4,11.2,"11:20:32",1
"18/03/01","11:40",0.0,14.4,56.9,993.7,249.5,2.5,4.8,301.4,0.30,6.0,11.2,"11:30:48",1
"18/03/01","11:50",0.0,14.7,57.4,993.7,257.1,2.7,5.8,234.0,0.31,6.4,11.3,"11:47:12",1
"18/03/01","12:00",0.0,14.9,56.1,993.7,253.9,3.1,6.5,233.0,0.43,6.3,11.5,"11:56:48",1
"18/03/01","12:10",0.0,15.1,52.9,993.2,240.2,3.6,7.4,185.0,0.61,5.6,11.5,"12:09:36",1
"18/03/01","12:20",0.0,15.7,51.9,993.0,256.7,3.0,6.2,198.1,0.40,5.9,11.6,"12:11:52",1
"18/03/01","12:30",0.0,16.5,51.3,993.0,269.9,2.6,5.8,333.3,0.47,6.5,12.0,"12:21:52",1
"18/03/01","12:40",0.0,15.9,48.3,993.0,261.6,3.4,5.9,230.2,0.59,5.0,12.2,"12:37:44",1
"18/03/01","12:50",0.0,16.0,49.3,993.0,248.8,3.6,6.6,204.3,0.55,5.4,12.2,"12:47:52",1
"18/03/01","13:00",0.0,15.5,49.7,992.2,246.3,3.9,8.1,233.5,0.39,5.1,12.3,"12:55:44",1
"18/03/01","13:10",0.0,15.9,48.4,992.5,294.2,2.2,7.1,337.9,0.27,5.1,12.3,"13:00:02",1
"18/03/01","13:20",0.0,15.2,48.2,992.2,272.2,3.7,9.1,233.1,0.27,4.4,12.4,"13:13:44",1
"18/03/01","13:30",0.0,14.9,50.3,992.5,269.8,3.7,7.9,350.3,0.16,4.7,12.2,"13:23:44",1
"18/03/01","13:40",0.0,14.2,53.3,993.2,244.5,4.4,8.7,233.1,0.12,4.9,12.2,"13:34:32",1
"18/03/01","13:50",0.0,13.8,54.3,993.2,263.5,3.6,7.5,221.2,0.05,4.8,12.2,"13:47:36",1
"18/03/01","14:00",0.0,13.8,54.7,993.0,268.7,2.3,5.4,235.7,0.04,4.9,11.8,"13:52:08",1
"18/03/01","14:10",0.0,13.9,53.8,993.2,257.4,2.7,7.4,220.5,0.06,4.7,12.1,"14:04:24",1
"18/03/01","14:20",0.0,13.5,56.0,993.0,251.4,4.0,7.8,234.6,0.03,4.9,11.8,"14:18:08",1
"18/03/01","14:30",0.0,13.2,58.0,993.2,256.7,3.1,5.5,271.0,0.04,5.2,11.6,"14:24:40",1
"18/03/01","14:40",0.0,13.1,60.0,993.2,263.0,3.9,8.6,235.1,0.07,5.6,11.7,"14:39:12",1
"18/03/01","14:50",0.0,12.9,61.9,993.4,245.4,3.2,8.3,234.2,0.03,5.8,11.5,"14:49:52",1
"18/03/01","15:00",0.0,12.6,63.2,993.4,253.8,3.0,5.8,216.0,0.00,5.8,11.6,"14:54:56",1
"18/03/01","15:10",0.0,12.7,63.8,993.7,249.6,2.5,5.0,236.4,0.00,6.1,11.2,"15:01:12",1
"18/03/01","15:20",0.0,12.8,63.3,993.4,261.1,3.2,7.5,244.4,0.02,6.0,11.3,"15:14:48",1
"18/03/01","15:30",0.0,12.8,63.1,993.9,261.2,2.7,7.3,256.1,0.02,6.0,11.2,"15:22:24",1
"18/03/01","15:40",0.0,12.8,63.6,993.7,273.0,2.2,7.2,267.2,0.02,6.1,11.2,"15:33:44",1
"18/03/01","15:50",0.0,12.7,64.0,993.9,257.1,2.8,4.9,246.2,0.01,6.1,10.9,"15:43:20",1
"18/03/01","16:00",0.0,12.7,64.4,994.1,258.9,2.7,9.1,235.6,0.01,6.2,11.1,"15:52:48",1
"18/03/01","16:10",0.0,12.7,64.6,994.6,271.1,2.5,6.8,320.1,0.01,6.2,10.9,"16:02:32",1
"18/03/01","16:20",0.0,12.7,64.7,994.4,289.3,2.8,7.1,341.6,0.00,6.3,11.0,"16:10:40",1
"18/03/01","16:30",0.0,12.7,64.9,994.4,265.5,2.2,6.0,219.0,0.00,6.3,10.8,"16:29:12",1
"18/03/01","16:40",0.0,12.8,64.3,994.4,270.4,2.6,5.8,246.9,0.02,6.3,10.7,"16:30:08",1
"18/03/01","16:50",0.0,12.9,64.2,994.6,273.9,1.7,2.8,230.0,0.02,6.3,10.9,"16:47:36",1
"18/03/01","17:00",0.0,12.9,63.7,994.4,274.3,2.1,4.9,233.1,0.01,6.2,10.5,"16:52:16",1
"18/03/01","17:10",0.0,12.9,64.4,994.6,270.5,1.6,2.8,233.3,0.00,6.4,10.7,"17:04:00",1
"18/03/01","17:20",0.0,12.8,64.5,995.1,288.2,1.7,3.7,309.0,0.00,6.3,10.8,"17:17:12",1
"18/03/01","17:30",0.0,12.8,64.9,994.8,292.2,2.6,7.1,333.7,0.00,6.4,10.5,"17:26:40",1
"18/03/01","17:40",0.0,12.6,65.4,995.3,293.3,2.1,4.1,320.9,0.00,6.3,10.4,"17:39:20",1
"18/03/01","17:50",0.0,12.6,65.8,995.3,290.1,2.2,6.8,337.3,0.00,6.4,10.5,"17:44:00",1
"18/03/01","18:00",0.0,12.4,66.6,995.3,286.4,2.0,4.2,319.9,0.00,6.4,10.6,"17:59:44",1
"18/03/01","18:10",0.0,12.2,67.2,995.8,289.7,2.2,4.2,327.0,0.00,6.3,10.5,"18:02:24",1
"18/03/01","18:20",0.0,12.2,67.6,996.0,303.7,3.0,8.0,344.5,0.00,6.4,10.4,"18:14:00",1
"18/03/01","18:30",0.0,12.1,68.5,996.5,313.8,2.2,4.8,344.8,0.00,6.5,10.3,"18:29:12",1
"18/03/01","18:40",0.0,12.1,68.2,996.3,321.4,3.0,5.6,337.1,0.00,6.5,10.3,"18:32:00",1
"18/03/01","18:50",0.0,12.0,65.6,997.2,325.3,3.5,7.8,335.4,0.00,5.8,10.3,"18:40:02",1
"18/03/01","19:00",0.0,11.8,62.4,997.0,332.0,3.7,8.0,348.8,0.00,4.9,10.2,"18:56:24",1
"18/03/01","19:10",0.0,11.7,58.9,997.4,335.7,5.0,9.1,347.7,0.00,4.0,10.3,"19:03:46",1
"18/03/01","19:20",0.0,11.5,56.9,997.4,336.4,4.6,8.5,329.5,0.00,3.3,10.0,"19:19:06",1
"18/03/01","19:30",0.0,11.2,55.5,997.7,331.6,4.9,8.2,323.5,0.00,2.7,9.9,"19:23:56",1
"18/03/01","19:40",0.0,11.0,53.2,997.9,331.5,4.9,7.9,309.7,0.00,1.9,10.0,"19:30:08",1
"18/03/01","19:50",0.0,10.9,48.9,998.4,324.8,5.2,7.4,344.8,0.00,0.6,9.8,"19:48:24",1
"18/03/01","20:00",0.0,10.6,47.5,998.6,327.2,4.5,7.1,330.1,0.00,-0.1,9.8,"19:50:08",1
"18/03/01","20:10",0.0,10.4,47.1,998.9,330.9,5.1,8.6,324.4,0.00,-0.4,9.7,"20:03:14",1
"18/03/01","20:20",0.0,10.3,47.6,999.1,335.0,5.9,11.8,339.8,0.00,-0.3,9.7,"20:19:18",1
"18/03/01","20:30",0.0,10.0,48.0,999.6,316.6,4.5,7.2,336.3,0.00,-0.5,9.5,"20:21:28",1
"18/03/01","20:40",0.0,9.9,48.1,999.8,329.1,5.2,7.3,343.4,0.00,-0.5,9.2,"20:34:32",1
"18/03/01","20:50",0.0,9.7,48.0,999.8,327.4,5.0,7.9,328.5,0.00,-0.7,9.4,"20:42:08",1
"18/03/01","21:00",0.0,9.5,48.9,1000.0,334.8,4.5,7.2,324.3,0.00,-0.7,9.2,"20:56:16",1
"18/03/01","21:10",0.0,9.2,48.0,1000.0,331.8,4.6,7.8,346.8,0.00,-1.2,9.0,"21:08:18",1
"18/03/01","21:20",0.0,9.1,45.7,1000.5,332.3,4.6,9.3,332.1,0.00,-2.0,9.0,"21:13:36",1
"18/03/01","21:30",0.0,8.9,44.3,1000.8,338.2,4.4,7.7,336.8,0.00,-2.6,9.3,"21:20:16",1
"18/03/01","21:40",0.0,8.8,43.3,1000.8,333.7,4.0,7.7,347.2,0.00,-3.0,8.9,"21:35:36",1
"18/03/01","21:50",0.0,8.5,44.3,1001.5,328.1,4.0,6.6,325.7,0.00,-2.9,8.9,"21:44:16",1
"18/03/01","22:00",0.0,8.5,44.0,1001.2,322.5,3.6,6.8,324.3,0.00,-3.0,8.8,"21:55:36",1
"18/03/01","22:10",0.0,8.3,44.3,1001.9,311.3,2.7,7.8,334.9,0.00,-3.1,8.7,"22:06:00",1
"18/03/01","22:20",0.0,8.2,45.5,1002.2,340.6,3.1,7.3,325.9,0.00,-2.8,8.6,"22:19:20",1
"18/03/01","22:30",0.0,7.9,46.2,1001.7,305.7,2.3,6.5,338.0,0.00,-2.9,8.7,"22:22:56",1
"18/03/01","22:40",0.0,7.2,49.0,1002.4,309.1,1.6,3.2,324.9,0.00,-2.8,8.3,"22:39:28",1
"18/03/01","22:50",0.0,7.2,49.6,1002.2,285.9,2.2,4.5,312.0,0.00,-2.6,8.5,"22:43:20",1
"18/03/01","23:00",0.0,7.6,49.4,1002.2,321.4,2.5,4.8,309.5,0.00,-2.3,8.3,"22:56:24",1
"18/03/01","23:10",0.0,7.6,49.9,1002.2,307.9,1.6,3.2,107.7,0.00,-2.1,8.2,"23:00:32",1
"18/03/01","23:20",0.0,7.5,50.8,1002.4,287.9,1.0,2.0,315.2,0.00,-2.0,8.4,"23:18:48",1
"18/03/01","23:30",0.0,7.3,54.6,1002.6,313.0,1.1,2.9,323.4,0.00,-1.2,8.3,"23:22:08",1
"18/03/01","23:40",0.0,7.2,55.9,1002.6,265.8,1.3,2.0,242.0,0.00,-1.0,8.3,"23:37:28",1
"18/03/01","23:50",0.0,7.4,54.5,1003.1,311.7,2.3,3.5,318.3,0.00,-1.1,8.3,"23:42:48",1
"18/03/01","24:00",0.0,7.3,56.9,1003.4,284.1,1.3,1.8,255.7,0.00,-0.6,8.3,"23:55:20",1
